◎2005 TF49の軌道と予報位置です    [From JSGA Web News No. 72]



JSGA Web News No. 72                                               2006 May 19



アポロ・アモール型特異小惑星 2005 TF49の接近

  昨年,2005年10月8日にLONEOSサーベイで18等級で発見されたこの小惑星は,2006年

4月16.6日UTに0.0517 AUまで接近し,13等級まで明るくなった.ただし,この小惑星の

接近は,天文年鑑2006の締め切りに間に合わなかったために,そこには,掲げられてい

ない.

 この接近の様子が美星スペースガードセンターでも,4月21/22日に次のように捕ら

えられた.なお,小惑星は,雄踏の和久田俊一氏(379)によっても精力的に観測され

ている.



     K05T49F  C2006 04 21.55243 11 17 58.27 -32 45 16.9          15.4 V      300

     K05T49F  C2006 04 21.55612 11 17 53.98 -32 46 04.0          15.4 V      300

     K05T49F  C2006 04 21.55984 11 17 49.46 -32 46 52.2          15.6 V      300

     K05T49F  C2006 04 21.56354 11 17 45.30 -32 47 40.2          15.2 V      300

     K05T49F  C2006 04 21.56463 11 17 43.87 -32 47 54.6          15.9 V      300

     K05T49F  C2006 04 21.56575 11 17 42.50 -32 48 08.4          15.4 V      300

     K05T49F  C2006 04 21.56697 11 17 41.06 -32 48 23.6          15.7 V      300

     K05T49F  C2006 04 21.56723 11 17 40.69 -32 48 27.7          15.3 V      300

     K05T49F  C2006 04 21.56809 11 17 39.78 -32 48 38.3          15.6 V      300

     K05T49F  C2006 04 21.56921 11 17 38.39 -32 48 52.5          15.4 V      300

     K05T49F  C2006 04 21.57036 11 17 37.09 -32 49 07.2          15.7 V      300

     K05T49F  C2006 04 21.57095 11 17 36.31 -32 49 14.7          15.5 V      300

     K05T49F  C2006 04 21.57148 11 17 35.73 -32 49 21.8          15.4 V      300

     K05T49F  C2006 04 21.57263 11 17 34.37 -32 49 36.3          15.6 V      300

     K05T49F  C2006 04 21.57382 11 17 32.93 -32 49 51.5          15.4 V      300

     K05T49F  C2006 04 21.57465 11 17 31.96 -32 50 01.6          15.6 V      300



 次の軌道は,1989年に見つかった発見前の観測から2006年5月4日までに行なわれた

428個の観測から決定されたもの.小惑星は,今年10月19.9日UTに地球に0.0558 AUまで

再び接近する.なお,この小惑星の直径は,494-mと推定される.

               。

       Mo= 202.0986                Epoch = 2006 Mar.  6.0 TT

       ω = 301.8834                   e =   0.025132          H = 19.2

       Ω =  25.7916    (2000.0)       a =   1.041255 AU       G =  0.15

       i =  24.5548                   n゚=   0.9276162

       q =   1.015087 AU              P =   1.06 年



 次の位置予報は,地心からのもの(0時TT).小惑星は,南の低空を動いているが,

南半球では,しばらくの間,観測できるだろう.



2006/        α  (2000) δ      △      r     日々運動   Elong.  Phase   V  

  0h TT     h  m       。  ,        AU      AU    ,  PA 。     。      。      等

May   1   09 13.58  -48 07.6    0.116   1.049  83.5/247   108.0   66.0   17.0

      2   09 05.83  -48 39.6    0.122   1.049  74.5/248   106.3   67.3   17.1

      3   08 58.81  -49 07.0    0.128   1.048  66.7/249   104.8   68.4   17.3

      4   08 52.42  -49 30.4    0.135   1.048  60.0/250   103.4   69.4   17.4

      5   08 46.60  -49 50.8    0.141   1.047  54.2/250   102.1   70.3   17.5

      6   08 41.29  -50 08.5    0.148   1.047  49.1/251   101.0   71.1   17.6

      7   08 36.44  -50 24.2    0.154   1.047  44.7/251    99.9   71.8   17.8

      8   08 31.99  -50 38.1    0.161   1.046  40.7/252    98.9   72.4   17.9

      9   08 27.91  -50 50.6    0.167   1.046  37.3/252    98.0   72.9   18.0

     10   08 24.15  -51 01.9    0.173   1.045  34.2/252    97.1   73.4   18.1

     11   08 20.68  -51 12.2    0.180   1.045  31.5/252    96.2   73.9   18.2

     12   08 17.47  -51 21.6    0.186   1.044  29.1/252    95.5   74.3   18.2

     13   08 14.50  -51 30.2    0.192   1.044  26.9/252    94.7   74.7   18.3

     14   08 11.75  -51 38.3    0.199   1.044  24.9/252    94.0   75.0   18.4

     15   08 09.19  -51 45.8    0.205   1.043  23.2/252    93.4   75.3   18.5

     16   08 06.81  -51 52.8    0.211   1.043  21.6/252    92.8   75.6   18.6

     17   08 04.59  -51 59.5    0.217   1.042  20.1/252    92.2   75.8   18.6

     18   08 02.52  -52 05.8    0.223   1.042  18.8/251    91.6   76.0   18.7

     19   08 00.58  -52 11.8    0.230   1.041  17.6/251    91.1   76.2   18.8

     20   07 58.77  -52 17.5    0.236   1.041  16.5/250    90.5   76.4   18.8

     21   07 57.07  -52 23.1    0.242   1.041  15.5/250    90.0   76.5   18.9

     22   07 55.47  -52 28.4    0.247   1.040  14.6/249    89.6   76.7   18.9

     23   07 53.98  -52 33.6    0.253   1.040  13.8/248    89.1   76.8   19.0

     24   07 52.57  -52 38.7    0.259   1.039  13.0/247    88.7   76.9   19.0

     25   07 51.25  -52 43.6    0.265   1.039  12.3/247    88.2   77.0   19.1

     26   07 50.00  -52 48.5    0.270   1.038  11.7/246    87.8   77.1   19.1

     27   07 48.83  -52 53.3    0.276   1.038  11.1/245    87.4   77.2   19.2

     28   07 47.71  -52 58.1    0.281   1.038  10.6/244    87.0   77.2   19.2

     29   07 46.66  -53 02.8    0.287   1.037  10.1/242    86.7   77.3   19.3

     30   07 45.66  -53 07.5    0.292   1.037   9.7/241    86.3   77.3   19.3

     31   07 44.71  -53 12.1    0.297   1.036   9.3/240    86.0   77.4   19.3

June  1   07 43.81  -53 16.8    0.303   1.036   9.0/239    85.6   77.4   19.4

 

 

軌道と残差:

 

2005 TF49

Epoch 2006 Mar. 6.0 TT = JDT 2453800.5                  Nakano

M 202.09859              (2000.0)            P               Q

n   0.92761618     Peri.  301.88338     +0.81161637     +0.55550542

a   1.0412552      Node    25.79157     -0.28680005     +0.64852725

e   0.0251318      Incl.   24.55479     -0.50894460     +0.52040958

P   1.06           H   19.2           G   0.15           U   2

Residuals in seconds of arc 

891021 260  1.8+  1.1-    060404 J65  0.0   0.2+    060409 J65  0.4+  0.2+  

891021 260  0.7+  0.5-    060404 J65  0.1+  0.2+    060409 J65  0.1-  0.0   

051008 699  0.0   1.5+    060404 J65  0.3-  0.2-    060409 J65  0.1-  0.0   

051008 699  0.9-  0.0     060404 J65  0.7-  0.0     060409 J65  0.4+  0.5-  

051008 699  1.9+  0.5+    060404 J65  0.2+  0.2+    060409 J65  0.4+  0.5-  

051008 699  0.6-  0.3+    060404 J65  0.1-  0.0     060409 J65  0.1+  0.2+  

051009 A50  0.7+  0.0     060404 J65  0.4+  0.4-    060409 J65  0.1+  0.2+  

051009 A50  0.9+  0.0     060404 J65  0.6+  0.2-    060409 J65  0.2+  0.0   

051009 A50  0.5+  0.4-    060404 J65  0.8-  0.6+    060409 J65  0.2+  0.0   

051009 A50  0.1-  0.5-    060404 J65  1.2-  0.5-    060409 J65  0.3+  0.1+  

051009 A50  1.1-  0.2+    060404 J65  0.2-  0.1-    060409 J65  0.3+  0.1+  

051010 649  0.3-  0.1+    060404 J65  0.2-  0.4-    060409 J65  0.3+  0.0   

051010 649  0.1-  0.1+    060404 J65  0.5-  1.5+    060409 J65  0.3+  0.0   

051010 649  0.2+  0.7-    060404 J65 (2.3+  0.5-)   060409 J65  0.1+  0.1+  

051010 649  0.1+  0.2-    060404 J65  0.2+  0.2+    060409 J65  0.1+  0.1+  

051010 649  0.1+  0.0     060404 J65  0.1-  0.3-    060409 J65  0.3+  0.1+  

051011 A50 (1.5+  3.6+)   060404 J65  0.2+  0.5-    060409 J65  0.3+  0.1+  

051011 A50 (1.8+  3.6+)   060404 J65  0.5-  0.2+    060409 J65  0.1+  0.3+  

051011 A50 (1.9+  3.3+)   060404 J65  0.2-  0.5+    060409 J65  0.1+  0.3+  

051011 A50 (2.0+  3.3+)   060404 J65  1.6-  0.1+    060409 J65  0.1-  0.3+  

051013 699  1.2+  0.8+    060407 379  0.4+  0.6+    060409 J65  0.1-  0.3+  

051013 699  1.4+  0.7+    060407 379  0.4+  0.6+    060409 J65  0.1+  0.3-  

051013 699  1.6+  1.3+    060407 379  0.3+  0.0     060409 J65  0.1+  0.3-  

051013 699  1.0+  0.5+    060407 379  0.3+  0.0     060409 J65  0.2-  0.3+  

051013 291  0.5+  0.8+    060407 379  0.1-  0.3+    060409 J65  0.2-  0.3+  

051013 291  0.5+  0.4+    060407 379  0.1-  0.3+    060409 J65  0.2+  0.3-  

051013 291  0.6+  1.3+    060407 379  0.7+  0.0     060409 J65  0.2+  0.3-  

051013 G96  0.1-  0.0     060407 379  0.7+  0.0     060409 J65  0.2+  0.3-  

051013 G96  0.0   0.1-    060407 379  0.5+  0.2+    060409 J65  0.2+  0.3-  

051013 G96  0.0   0.0     060407 379  0.5+  0.2+    060409 J65  0.2+  0.3-  

051014 734  0.7-  0.5-    060407 379  0.2+  0.2+    060409 J65  0.2+  0.3-  

051014 734  0.4-  0.4+    060407 379  0.2+  0.2+    060409 J65  0.1+  0.2-  

051014 734  0.2-  1.4+    060407 379  0.0   0.1-    060409 J65  0.1+  0.2-  

051014 734  0.5-  0.4+    060407 379  0.0   0.1-    060409 J65  0.6-  0.3-  

051014 734 (0.7-  2.3+)   060407 379  0.0   0.4-    060409 J65  0.6-  0.3-  

051014 734  0.5+  1.3+    060407 379  0.0   0.4-    060409 J65  0.2+  0.5+  

051014 F65  0.4+  0.0     060407 379  0.0   0.3+    060409 J65  0.2+  0.5+  

051014 F65  0.2+  0.2+    060407 379  0.0   0.3+    060409 J65  0.2+  0.1-  

051014 F65  0.2-  0.1-    060407 A13  0.8-  0.8-    060409 J65  0.2+  0.1-  

051018 F65  0.3+  0.1+    060407 A13  0.8-  0.8-    060409 J65  0.5+  0.1+  

051018 F65  0.1+  0.1+    060407 A13  0.8-  0.7-    060409 J65  0.5+  0.1+  

051018 F65  0.1+  0.2+    060407 A13  0.8-  0.7-    060409 J65  0.1+  0.1+  

051024 448  0.1-  0.3+    060407 A13  0.8-  0.9-    060409 J65  0.1+  0.1+  

051024 448  0.2-  0.6+    060407 A13  0.8-  0.9-    060413 H45  0.4-  0.8+  

051024 448  1.5+  0.2-    060407 A13  0.7-  0.9-    060413 H45  0.4-  0.8+  

051112 J95  0.4-  0.4+    060407 A13  0.7-  0.9-    060413 H45  0.6-  0.5+  

051112 J95  0.3-  0.1+    060407 A13  1.0-  0.9-    060413 H45  0.6-  0.5+  

051112 J95  0.1-  0.6+    060407 A13  1.0-  0.9-    060413 H45  0.5-  0.2+  

051206 448  0.6+  0.5+    060407 A89  0.2+  0.2-    060413 H45  0.5-  0.2+  

051206 448  0.2-  0.0     060407 A89  0.2+  0.2-    060413 H45  0.2-  0.3+  

060108 461  0.1+  0.4+    060407 A89  0.1+  0.4-    060413 H45  0.2-  0.3+  

060108 461  0.1+  0.6+    060407 A89  0.1+  0.4-    060413 H45  0.1-  0.4+  

060108 461  0.3-  0.3+    060407 A89  0.2-  0.4-    060413 H45  0.1-  0.4+  

060108 461  0.2-  0.4+    060407 A89  0.2-  0.4-    060413 H45  0.2-  0.3+  

060108 461  0.2+  0.3+    060407 A89  0.1+  0.3-    060413 H45  0.2-  0.3+  

060108 461  0.2-  0.3+    060407 A89  0.1+  0.3-    060413 H45  0.3-  0.4+  

060108 461  0.1-  0.4+    060407 A13  0.8-  0.8-    060413 H45  0.3-  0.4+  

060108 461  0.3-  0.2+    060407 A13  0.8-  0.8-    060413 H45  0.2-  0.2+  

060108 461  0.7-  0.1+    060407 A89  0.1-  0.5-    060413 H45  0.2-  0.2+  

